Weather History for EINN - September, 2013

Change the Weather History Date:

Saturday, September 7, 2013

  Actual Average Record
Temperature  
Mean Temperature 50 °F -  
Max Temperature 54 °F 62 °F 73 °F (1996)
Min Temperature 45 °F 49 °F 42 °F (2014)
Degree Days  
Heating Degree Days 16    
Moisture  
Dew Point 46 °F    
Average Humidity 84    
Maximum Humidity 94    
Minimum Humidity 67    
Precipitation  
Precipitation 0.12 in 0.11 in - ()
Sea Level Pressure  
Sea Level Pressure 29.98 in    
Wind  
Wind Speed 9 mph ()    
Max Wind Speed 18 mph    
Max Gust Speed -    
Visibility 7.1 miles    
Events Rain    
Averages and records for this station are not official NWS values.
T = Trace of Precipitation, MM = Missing Value Source: Averaged Metar Reports

Daily Weather History Graph

Daily Weather History Graph

Search for Another Location

Airport or City:

Trip Planner

Search our weather history database for the weather conditions in past years. The results will help you decide how hot, cold, wet, or windy it might be!

Date:

Astronomy

Sep. 07, 2013 Rise Set
Actual Time 6:56 AM IST 8:09 PM IST
Civil Twilight 6:21 AM IST 8:44 PM IST
Nautical Twilight 5:38 AM IST 9:27 PM IST
Astronomical Twilight 4:51 AM IST 10:14 PM IST
Moon 9:20 AM IST (9/7) 8:33 PM IST (9/7)
Length of Visible Light 14h 23m
Length of Day
13h 13m
Waxing Crescent, 4% of the Moon is Illuminated
Sep 7
Waxing Crescent
Sep 12
First Quarter
Sep 19
Full
Sep 27
Last Quarter
Oct 5
New

Hourly Weather History & Observations

Time (IST) Temp. Windchill Dew Point Humidity Pressure Visibility Wind Dir Wind Speed Gust Speed Precip Events Conditions
12:00 AM 48.2 °F - 44.6 °F 87% 29.98 in - NW 8.1 mph - N/A   Clear
12:30 AM 46.4 °F 42.4 °F 44.6 °F 93% 29.98 in - NW 8.1 mph - N/A   Clear
1:00 AM 47 °F - 45 °F 89% 29.99 in 16 mi WNW 8.9 mph - -   Partly Cloudy
1:00 AM 46.4 °F 42.4 °F 44.6 °F 93% 29.98 in - WNW 8.1 mph - N/A   Clear
1:30 AM 46.4 °F 42.9 °F 44.6 °F 93% 29.98 in - NW 6.9 mph - N/A   Clear
2:00 AM 46.4 °F 42.9 °F 44.6 °F 93% 29.98 in - WNW 6.9 mph - N/A   Clear
2:30 AM 46.4 °F 42.4 °F 44.6 °F 93% 29.98 in - NW 8.1 mph - N/A   Clear
3:00 AM 46.4 °F 42.9 °F 44.6 °F 93% 29.98 in - WNW 6.9 mph - N/A   Clear
3:30 AM 46.4 °F 42.9 °F 44.6 °F 93% 29.98 in - WNW 6.9 mph - N/A   Clear
4:00 AM 46.4 °F 42.9 °F 44.6 °F 93% 29.98 in - NW 6.9 mph - N/A   Clear
4:30 AM 46.4 °F 42.4 °F 44.6 °F 93% 29.98 in - WNW 8.1 mph - N/A   Clear
5:00 AM 48.2 °F - 44.6 °F 87% 29.98 in - NW 11.5 mph - N/A   Clear
5:30 AM 48.2 °F - 44.6 °F 87% 29.98 in 6.2 mi NW 10.4 mph - N/A   Scattered Clouds
6:00 AM 50.0 °F - 46.4 °F 87% 29.98 in 6.2 mi WNW 8.1 mph - N/A   Mostly Cloudy
6:30 AM 50.0 °F - 46.4 °F 87% 29.98 in 6.2 mi NW 15.0 mph - N/A Rain Light Rain Showers
7:00 AM 50 °F - 46 °F 79% 29.99 in 16 mi NW 13.4 mph - - Rain Light Rain Showers
7:00 AM 50.0 °F - 46.4 °F 87% 29.98 in 6.2 mi NW 12.7 mph - N/A   Mostly Cloudy
7:30 AM 50.0 °F - 44.6 °F 82% 29.98 in 6.2 mi NW 12.7 mph - N/A   Mostly Cloudy
8:00 AM 51.8 °F - 44.6 °F 76% 29.98 in 6.2 mi NW 12.7 mph - N/A   Mostly Cloudy
8:30 AM 51.8 °F - 44.6 °F 76% 29.98 in 6.2 mi WNW 11.5 mph - N/A   Mostly Cloudy
9:00 AM 51.8 °F - 42.8 °F 71% 29.98 in 6.2 mi NW 11.5 mph - N/A   Mostly Cloudy
9:30 AM 53.6 °F - 44.6 °F 72% 29.98 in 6.2 mi WNW 13.8 mph - N/A   Mostly Cloudy
10:00 AM 53.6 °F - 44.6 °F 72% 29.98 in 6.2 mi WNW 15.0 mph - N/A   Mostly Cloudy
10:30 AM 53.6 °F - 42.8 °F 67% 29.98 in 6.2 mi NW 16.1 mph - N/A   Mostly Cloudy
11:00 AM 53.6 °F - 44.6 °F 72% 29.98 in 6.2 mi NW 13.8 mph - N/A   Mostly Cloudy
11:30 AM 53.6 °F - 42.8 °F 67% 29.98 in 6.2 mi NW 18.4 mph - N/A Rain Light Rain
12:00 PM 51.8 °F - 46.4 °F 82% 30.01 in 6.2 mi NNW 13.8 mph - N/A   Mostly Cloudy
12:30 PM 51.8 °F - 46.4 °F 82% 30.01 in 6.2 mi NW 12.7 mph - N/A   Mostly Cloudy
1:00 PM 53 °F - 46 °F 69% 30.00 in 19 mi NW 11.2 mph - - Rain Light Rain
1:00 PM 53.6 °F - 46.4 °F 77% 29.98 in 6.2 mi NW 11.5 mph - N/A Rain Light Rain
1:30 PM 51.8 °F - 46.4 °F 82% 30.01 in 6.2 mi NW 9.2 mph - N/A Rain Light Rain
2:00 PM 50.0 °F - 48.2 °F 94% 29.98 in 6.2 mi West 13.8 mph - N/A Rain Light Rain Showers
2:30 PM 51.8 °F - 48.2 °F 88% 29.98 in 6.2 mi WNW 12.7 mph - N/A   Mostly Cloudy
3:00 PM 51.8 °F - 46.4 °F 82% 29.98 in 6.2 mi WNW 11.5 mph - N/A   Mostly Cloudy
3:30 PM 51.8 °F - 46.4 °F 82% 29.98 in 6.2 mi West 11.5 mph - N/A   Mostly Cloudy
4:00 PM 51.8 °F - 46.4 °F 82% 29.98 in 5.0 mi West 12.7 mph - N/A Rain Light Rain
4:30 PM 51.8 °F - 48.2 °F 88% 29.98 in 6.2 mi West 9.2 mph - N/A Rain Light Rain
5:00 PM 51.8 °F - 46.4 °F 82% 29.98 in 6.2 mi WNW 15.0 mph - N/A Rain Light Rain
5:30 PM 50.0 °F - 48.2 °F 94% 29.95 in 6.2 mi WNW 10.4 mph - N/A   Mostly Cloudy
6:00 PM 51.8 °F - 46.4 °F 82% 29.95 in 6.2 mi West 11.5 mph - N/A   Mostly Cloudy
6:30 PM 51.8 °F - 48.2 °F 88% 29.95 in 6.2 mi WSW 11.5 mph - N/A   Mostly Cloudy
7:00 PM 51 °F - 48 °F 85% 29.96 in 11 mi WSW 13.4 mph - -   Partly Cloudy
7:00 PM 51.8 °F - 48.2 °F 88% 29.95 in 6.2 mi WSW 12.7 mph - N/A   Mostly Cloudy
7:30 PM 51.8 °F - 48.2 °F 88% 29.95 in 6.2 mi WSW 11.5 mph - N/A   Mostly Cloudy
8:00 PM 51.8 °F - 48.2 °F 88% 29.95 in 6.2 mi West 10.4 mph - N/A   Mostly Cloudy
8:30 PM 51.8 °F - 48.2 °F 88% 29.95 in 6.2 mi WSW 9.2 mph - N/A   Mostly Cloudy
9:00 PM 51.8 °F - 48.2 °F 88% 29.95 in 6.2 mi West 6.9 mph - N/A Rain Light Rain
9:30 PM 51.8 °F - 46.4 °F 82% 29.98 in 6.2 mi West 8.1 mph - N/A Rain Light Rain
10:00 PM 51.8 °F - 46.4 °F 82% 29.98 in 6.2 mi WNW 6.9 mph - N/A   Mostly Cloudy
10:30 PM 51.8 °F - 48.2 °F 88% 29.98 in 6.2 mi West 6.9 mph - N/A   Mostly Cloudy
11:00 PM 51.8 °F - 46.4 °F 82% 29.98 in 6.2 mi West 6.9 mph - N/A   Mostly Cloudy
11:30 PM 50.0 °F - 46.4 °F 87% 29.98 in 6.2 mi WNW 10.4 mph - N/A   Overcast